Lid_Strength_Index
11 14 16 14 13 13 13 14 15 14 14 15 15 15 13 12 14 13 12 11 10 11 11 11 11 11 11 11 13 14 14 13 13 14 14 14 14 14 14 13 12 12 12 10
13 16 13 12 13 14 14 15 16 14 15 16 16 16 14 13 12 13 12 12 10 10 11 11 11 11 12 12 13 14 14 14 13 13 13 13 13 13 13 13 13 12 12 11
15 14 13 13 15 15 15 16 16 17 15 16 18 18 16 14 13 12 12 11 10 10 11 11 11 12 12 13 13 14 14 14 13 12 12 12 13 13 14 14 14 13 12 12
14 13 15 16 16 15 18 16 15 16 18 21 17 23 18 15 14 14 12 12 11 10 10 10 12 12 13 13 13 14 14 14 13 13 13 13 14 15 14 14 13 13 12 12
17 17 18 16 17 15 17 16 17 17 19 19 20 22 19 17 16 15 13 12 12 11 10 11 11 12 12 13 14 14 14 14 13 12 12 13 14 13 13 13 14 13 13 12
18 16 16 16 17 16 15 18 17 19 19 25 20 19 20 17 16 15 13 13 12 13 12 10 10 12 12 13 14 14 14 13 12 13 13 13 13 13 14 14 14 14 14 13
18 18 17 16 18 17 17 19 21 24 26 24 20 20 18 15 13 14 13 13 14 13 13 11 12 12 12 13 13 14 14 14 13 13 13 13 12 13 13 13 14 14 14 14
20 21 19 17 18 18 18 18 20 25 23 21 21 22 19 14 13 14 15 15 14 15 13 12 12 12 12 13 13 13 14 13 13 13 13 12 12 12 13 13 13 13 14 13
19 20 19 18 18 18 19 21 18 20 23 24 21 19 16 15 14 14 14 15 14 15 14 13 12 11 11 12 13 13 13 13 13 13 12 12 12 13 12 13 13 13 13 12
17 21 19 20 18 18 19 18 20 20 28 27 20 20 20 17 15 15 15 15 14 14 15 14 12 12 12 12 12 13 13 13 13 13 12 12 12 12 12 12 13 13 13 12
17 18 21 20 21 20 21 20 20 19 20 23 24 21 16 15 15 16 16 15 14 14 13 14 12 12 11 12 12 12 12 13 13 12 12 12 12 12 12 12 13 12 13 12
15 16 23 21 21 20 20 19 18 20 23 21 21 21 14 14 14 15 15 14 14 15 14 13 13 13 12 12 12 12 12 13 12 12 12 12 12 12 13 13 13 13 13 13
17 19 22 22 22 21 24 19 18 17 19 23 25 21 15 15 15 14 15 14 14 15 15 14 13 13 13 12 12 12 12 12 12 12 12 13 13 13 13 13 13 13 13 13
14 20 21 22 21 21 25 23 19 21 25 22 20 19 16 14 14 13 13 13 14 15 14 15 14 13 13 13 12 13 12 12 12 12 12 13 13 12 12 12 12 13 13 14
15 20 22 22 19 20 21 23 21 23 20 24 19 19 17 15 15 14 13 13 13 15 15 15 15 14 13 13 13 12 12 12 12 13 13 13 12 12 12 13 13 13 14 14
17 18 23 24 18 18 21 21 21 19 19 19 19 19 15 14 14 14 14 14 15 15 15 15 15 14 14 14 12 13 13 13 12 13 13 13 13 13 13 13 13 13 14 14
18 17 19 24 18 19 24 20 20 18 19 18 20 16 13 14 14 13 13 13 14 15 15 15 15 15 15 14 13 13 13 13 13 13 14 13 13 13 13 13 14 14 15 15
17 18 17 20 21 26 19 18 17 17 15 15 15 14 13 13 13 12 13 15 16 17 17 16 15 16 15 15 14 14 13 13 14 14 14 14 14 14 14 14 15 15 16 17
13 15 18 20 23 20 17 17 20 20 19 14 14 13 13 15 16 15 17 17 17 18 17 17 16 16 16 15 14 14 15 14 14 14 14 14 14 15 15 16 17 18 18 18
15 13 16 18 21 25 19 17 15 16 21 15 14 14 14 15 19 16 19 18 19 18 18 18 18 17 17 18 16 15 16 16 17 16 16 16 16 16 18 18 19 19 20 20
19 17 18 17 19 20 16 16 15 21 18 15 13 13 14 15 15 19 18 19 19 19 19 20 20 20 20 19 20 20 20 20 19 19 18 18 18 19 19 19 19 20 21 21
19 19 19 18 18 21 15 15 16 14 15 14 14 14 14 14 17 18 19 19 20 21 21 21 22 22 22 21 22 23 23 21 20 20 20 20 20 19 20 20 21 21 21 22
17 16 16 16 17 15 14 13 13 14 14 13 14 13 14 14 16 17 20 21 22 22 21 22 23 24 24 24 23 24 24 22 22 22 22 21 21 20 20 21 21 21 21 22
15 14 14 14 15 14 15 14 12 12 12 12 13 14 15 16 16 18 20 21 21 22 23 23 24 25 25 24 23 24 23 23 23 24 23 22 22 22 21 21 21 21 22 23
13 13 14 15 13 12 12 13 10 10 10 11 12 14 14 15 17 18 19 20 21 22 22 23 24 25 25 24 24 24 24 23 24 24 24 23 23 23 23 22 22 22 22 21
12 14 15 16 12 12 12 12 12 12 12 11 12 15 15 15 17 18 20 21 21 23 23 24 24 25 25 25 25 24 24 24 24 25 24 24 24 24 23 23 22 18 18 18